QPF
0.02 0.02 0.02 0.03 0.04 0.07 0.09 0.07 0.08 0.07 0.06 0.04 0.02 0.02 0.02 0.03 0.03 0.03 0.07 0.09 0.04 0.01 0.01 0.03 0.04 0.04 0.03 0.03 0.03 0.03 0.04 0.03 0.03 0.03 0.03 0.04 0.06 0.08 0.06 0.03 0.03 0.03 0.03 0.03 0.03 0.05 0.04 0.05 0.04
0.02 0.04 0.03 0.04 0.04 0.04 0.08 0.06 0.07 0.06 0.04 0.04 0.02 0.02 0.01 0.01 0.01 0.02 0.05 0.07 0.03 0.01 0.00 0.01 0.03 0.03 0.04 0.04 0.03 0.02 0.03 0.03 0.02 0.03 0.02 0.02 0.06 0.07 0.06 0.05 0.04 0.04 0.03 0.03 0.05 0.07 0.05 0.06 0.05
0.03 0.06 0.06 0.04 0.03 0.03 0.05 0.05 0.06 0.05 0.03 0.03 0.04 0.02 0.01 0.02 0.02 0.02 0.03 0.04 0.02 0.01 0.01 0.02 0.02 0.03 0.04 0.04 0.03 0.02 0.03 0.03 0.02 0.02 0.02 0.02 0.05 0.09 0.06 0.06 0.06 0.03 0.03 0.03 0.03 0.06 0.06 0.06 0.06
0.04 0.05 0.05 0.03 0.03 0.03 0.03 0.04 0.04 0.03 0.02 0.04 0.04 0.03 0.02 0.02 0.02 0.03 0.03 0.01 0.01 0.01 0.01 0.02 0.02 0.02 0.04 0.06 0.06 0.03 0.03 0.03 0.03 0.04 0.04 0.03 0.04 0.08 0.08 0.06 0.06 0.05 0.03 0.03 0.02 0.04 0.05 0.06 0.06
0.04 0.05 0.04 0.04 0.05 0.04 0.03 0.02 0.02 0.01 0.02 0.03 0.02 0.03 0.03 0.03 0.02 0.03 0.03 0.01 0.01 0.01 0.01 0.02 0.03 0.02 0.03 0.06 0.06 0.04 0.04 0.04 0.05 0.04 0.06 0.04 0.05 0.07 0.07 0.05 0.04 0.04 0.05 0.04 0.02 0.02 0.04 0.05 0.07
0.05 0.05 0.05 0.05 0.05 0.04 0.03 0.02 0.02 0.02 0.02 0.03 0.02 0.02 0.03 0.04 0.03 0.02 0.01 0.01 0.00 0.01 0.04 0.04 0.02 0.03 0.03 0.05 0.04 0.04 0.05 0.04 0.05 0.04 0.05 0.05 0.06 0.06 0.05 0.05 0.04 0.04 0.05 0.06 0.04 0.03 0.04 0.04 0.07
0.03 0.05 0.05 0.03 0.03 0.04 0.04 0.02 0.01 0.01 0.02 0.03 0.02 0.03 0.04 0.05 0.03 0.01 0.01 0.01 0.00 0.02 0.10 0.14 0.04 0.02 0.04 0.05 0.03 0.03 0.03 0.03 0.03 0.03 0.04 0.04 0.04 0.05 0.04 0.03 0.03 0.03 0.03 0.04 0.04 0.03 0.05 0.04 0.07
0.02 0.02 0.02 0.02 0.03 0.02 0.02 0.01 0.01 0.01 0.02 0.01 0.01 0.03 0.05 0.06 0.03 0.01 0.01 0.00 0.01 0.02 0.10 0.20 0.15 0.06 0.03 0.03 0.02 0.01 0.02 0.02 0.01 0.02 0.02 0.02 0.03 0.04 0.03 0.02 0.02 0.03 0.02 0.02 0.02 0.02 0.04 0.04 0.07
0.02 0.02 0.02 0.01 0.01 0.01 0.01 0.01 0.01 0.02 0.02 0.02 0.02 0.02 0.03 0.04 0.03 0.02 0.01 0.01 0.02 0.02 0.04 0.09 0.11 0.08 0.03 0.02 0.01 0.01 0.01 0.02 0.02 0.01 0.01 0.01 0.01 0.01 0.02 0.03 0.04 0.03 0.02 0.02 0.02 0.03 0.04 0.04 0.05
0.03 0.03 0.02 0.01 0.01 0.01 0.01 0.00 0.01 0.02 0.03 0.03 0.03 0.03 0.03 0.02 0.02 0.02 0.01 0.01 0.02 0.01 0.02 0.03 0.04 0.04 0.02 0.01 0.01 0.00 0.01 0.01 0.01 0.01 0.01 0.01 0.01 0.01 0.02 0.04 0.05 0.04 0.05 0.04 0.03 0.03 0.04 0.03 0.03
0.02 0.02 0.01 0.00 0.01 0.01 0.00 0.01 0.01 0.01 0.02 0.03 0.02 0.03 0.04 0.05 0.03 0.02 0.02 0.02 0.02 0.02 0.02 0.02 0.02 0.03 0.03 0.02 0.01 0.01 0.01 0.01 0.01 0.00 0.00 0.01 0.01 0.01 0.02 0.03 0.04 0.04 0.04 0.03 0.02 0.02 0.04 0.04 0.04
0.02 0.01 0.01 0.01 0.00 0.01 0.01 0.01 0.01 0.01 0.01 0.01 0.01 0.01 0.02 0.04 0.03 0.02 0.03 0.02 0.02 0.02 0.02 0.03 0.02 0.02 0.03 0.03 0.02 0.02 0.01 0.01 0.01 0.01 0.01 0.01 0.00 0.01 0.02 0.03 0.04 0.03 0.03 0.02 0.02 0.02 0.04 0.05 0.04
0.02 0.01 0.01 0.01 0.00 0.00 0.01 0.01 0.01 0.01 0.02 0.02 0.01 0.00 0.00 0.01 0.01 0.01 0.02 0.01 0.02 0.02 0.02 0.02 0.02 0.02 0.02 0.03 0.04 0.03 0.03 0.02 0.01 0.01 0.01 0.00 0.01 0.00 0.01 0.01 0.01 0.03 0.03 0.03 0.02 0.02 0.02 0.04 0.04
0.02 0.01 0.01 0.01 0.00 0.00 0.01 0.02 0.02 0.02 0.02 0.01 0.01 0.01 0.00 0.00 0.01 0.01 0.02 0.02 0.03 0.02 0.02 0.02 0.01 0.01 0.02 0.02 0.03 0.03 0.03 0.03 0.02 0.01 0.01 0.00 0.00 0.00 0.00 0.01 0.01 0.01 0.02 0.02 0.02 0.02 0.03 0.04 0.04
0.00 0.01 0.01 0.01 0.01 0.01 0.02 0.03 0.03 0.04 0.06 0.04 0.03 0.01 0.01 0.01 0.01 0.01 0.02 0.02 0.01 0.02 0.02 0.01 0.01 0.01 0.01 0.02 0.04 0.04 0.04 0.03 0.04 0.03 0.02 0.01 0.01 0.01 0.00 0.01 0.01 0.01 0.02 0.02 0.02 0.02 0.02 0.02 0.03
0.00 0.01 0.01 0.01 0.01 0.02 0.03 0.04 0.04 0.08 0.07 0.06 0.03 0.02 0.02 0.02 0.01 0.01 0.01 0.02 0.01 0.02 0.02 0.02 0.02 0.03 0.02 0.02 0.03 0.03 0.02 0.02 0.03 0.03 0.02 0.02 0.01 0.00 0.00 0.00 0.01 0.01 0.03 0.04 0.03 0.02 0.03 0.03 0.04
0.01 0.01 0.01 0.01 0.01 0.02 0.04 0.05 0.07 0.08 0.07 0.06 0.03 0.01 0.02 0.02 0.01 0.01 0.01 0.01 0.01 0.01 0.02 0.01 0.02 0.04 0.04 0.03 0.03 0.03 0.03 0.03 0.03 0.04 0.03 0.01 0.01 0.00 0.00 0.00 0.00 0.01 0.02 0.04 0.04 0.03 0.03 0.03 0.04
0.01 0.02 0.01 0.02 0.02 0.02 0.04 0.05 0.05 0.06 0.07 0.06 0.04 0.03 0.02 0.02 0.01 0.01 0.01 0.01 0.01 0.01 0.01 0.01 0.01 0.02 0.04 0.05 0.04 0.02 0.02 0.02 0.02 0.03 0.04 0.02 0.01 0.00 0.00 0.00 0.00 0.00 0.01 0.02 0.02 0.03 0.03 0.03 0.05
0.01 0.01 0.01 0.01 0.03 0.02 0.03 0.03 0.03 0.04 0.05 0.05 0.06 0.05 0.04 0.03 0.02 0.01 0.01 0.01 0.01 0.01 0.01 0.01 0.01 0.02 0.02 0.04 0.04 0.02 0.01 0.01 0.01 0.02 0.03 0.04 0.03 0.01 0.00 0.00 0.00 0.00 0.01 0.01 0.01 0.01 0.02 0.03 0.04
0.01 0.01 0.01 0.01 0.01 0.02 0.02 0.02 0.02 0.03 0.04 0.04 0.04 0.04 0.03 0.04 0.03 0.03 0.03 0.02 0.02 0.02 0.02 0.01 0.01 0.02 0.02 0.03 0.02 0.02 0.02 0.02 0.02 0.01 0.02 0.03 0.03 0.02 0.01 0.00 0.00 0.00 0.00 0.01 0.01 0.01 0.02 0.03 0.04
0.01 0.01 0.00 0.00 0.00 0.01 0.02 0.02 0.02 0.02 0.03 0.03 0.03 0.02 0.03 0.03 0.03 0.03 0.03 0.02 0.02 0.03 0.03 0.03 0.02 0.02 0.02 0.02 0.02 0.02 0.03 0.03 0.02 0.01 0.02 0.03 0.03 0.02 0.01 0.01 0.00 0.01 0.01 0.01 0.01 0.01 0.01 0.01 0.01
0.01 0.00 0.00 0.00 0.00 0.01 0.02 0.02 0.02 0.02 0.03 0.04 0.03 0.03 0.03 0.02 0.02 0.02 0.03 0.02 0.02 0.02 0.02 0.02 0.03 0.04 0.04 0.03 0.03 0.03 0.02 0.01 0.01 0.01 0.02 0.02 0.03 0.03 0.01 0.01 0.00 0.01 0.01 0.02 0.01 0.01 0.01 0.01 0.01
0.01 0.00 0.00 0.00 0.00 0.01 0.01 0.03 0.02 0.02 0.03 0.03 0.03 0.04 0.04 0.03 0.03 0.03 0.03 0.02 0.02 0.01 0.01 0.01 0.01 0.02 0.04 0.04 0.03 0.03 0.03 0.02 0.01 0.02 0.03 0.03 0.03 0.03 0.01 0.01 0.01 0.01 0.01 0.01 0.02 0.01 0.01 0.00 0.01
0.00 0.00 0.00 0.00 0.01 0.00 0.01 0.02 0.03 0.03 0.03 0.03 0.03 0.03 0.04 0.03 0.03 0.03 0.03 0.02 0.01 0.01 0.01 0.00 0.00 0.01 0.03 0.04 0.04 0.04 0.03 0.02 0.02 0.02 0.03 0.02 0.03 0.03 0.02 0.01 0.00 0.00 0.00 0.01 0.01 0.01 0.01 0.00 0.00
0.00 0.00 0.00 0.01 0.01 0.01 0.01 0.02 0.04 0.04 0.02 0.02 0.02 0.02 0.04 0.04 0.03 0.02 0.02 0.02 0.01 0.01 0.01 0.00 0.01 0.02 0.02 0.03 0.05 0.05 0.04 0.03 0.03 0.02 0.02 0.02 0.03 0.03 0.02 0.01 0.01 0.01 0.00 0.00 0.00 0.01 0.01 0.01 0.00
0.00 0.00 0.00 0.01 0.01 0.00 0.01 0.03 0.06 0.03 0.02 0.02 0.02 0.02 0.03 0.04 0.03 0.02 0.02 0.02 0.01 0.01 0.01 0.01 0.02 0.02 0.01 0.02 0.03 0.05 0.06 0.04 0.03 0.03 0.03 0.03 0.03 0.03 0.02 0.01 0.01 0.00 0.00 0.00 0.00 0.00 0.00 0.00 0.00
0.00 0.00 0.00 0.00 0.00 0.00 0.01 0.03 0.04 0.02 0.01 0.01 0.02 0.01 0.02 0.02 0.02 0.02 0.02 0.02 0.01 0.01 0.01 0.01 0.01 0.01 0.02 0.01 0.02 0.02 0.03 0.03 0.03 0.04 0.05 0.05 0.04 0.04 0.03 0.02 0.01 0.00 0.00 0.00 0.00 0.00 0.00 0.00 0.00
0.00 0.00 0.00 0.00 0.00 0.01 0.02 0.04 0.03 0.02 0.01 0.01 0.02 0.01 0.01 0.01 0.02 0.02 0.02 0.02 0.01 0.01 0.01 0.01 0.00 0.01 0.01 0.01 0.01 0.02 0.02 0.03 0.05 0.06 0.07 0.07 0.08 0.08 0.05 0.03 0.02 0.01 0.01 0.01 0.01 0.01 0.00 0.00 0.00
0.00 0.00 0.00 0.01 0.01 0.01 0.02 0.04 0.03 0.02 0.02 0.01 0.01 0.01 0.01 0.01 0.02 0.02 0.02 0.03 0.02 0.01 0.00 0.00 0.00 0.00 0.01 0.01 0.00 0.01 0.01 0.02 0.05 0.05 0.07 0.08 0.08 0.09 0.07 0.04 0.03 0.02 0.01 0.01 0.01 0.01 0.00 0.00 0.00
0.00 0.00 0.00 0.01 0.01 0.02 0.02 0.03 0.03 0.02 0.02 0.01 0.01 0.01 0.01 0.01 0.01 0.03 0.04 0.04 0.03 0.01 0.00 0.00 0.00 0.00 0.00 0.01 0.01 0.01 0.02 0.02 0.03 0.04 0.04 0.05 0.07 0.08 0.05 0.04 0.04 0.04 0.03 0.02 0.01 0.01 0.00 0.00 0.00
MSLP
1009.53 1010.24 1011.11 1011.99 1012.74 1013.23 1013.41 1013.29 1012.95 1012.52 1012.14 1011.94 1011.96 1012.23 1012.65 1013.14 1013.57 1013.84 1013.89 1013.74 1013.45 1013.11 1012.83 1012.67 1012.68 1012.85 1013.10 1013.38 1013.61 1013.74 1013.77 1013.73 1013.66 1013.63 1013.67 1013.81 1014.02 1014.27 1014.50 1014.67 1014.73 1014.69 1014.58 1014.42 1014.26 1014.13 1014.05 1014.01 1013.99
1010.01 1010.86 1011.79 1012.63 1013.26 1013.56 1013.52 1013.18 1012.65 1012.07 1011.60 1011.35 1011.39 1011.68 1012.15 1012.69 1013.16 1013.46 1013.55 1013.45 1013.23 1012.96 1012.76 1012.68 1012.76 1012.98 1013.28 1013.58 1013.83 1013.98 1014.03 1014.02 1013.99 1013.99 1014.06 1014.22 1014.43 1014.66 1014.86 1014.99 1015.04 1014.99 1014.89 1014.76 1014.64 1014.55 1014.51 1014.49 1014.48
1010.65 1011.59 1012.52 1013.28 1013.75 1013.85 1013.59 1013.05 1012.35 1011.67 1011.16 1010.92 1010.99 1011.33 1011.85 1012.41 1012.90 1013.22 1013.33 1013.26 1013.07 1012.86 1012.72 1012.71 1012.85 1013.11 1013.43 1013.76 1014.02 1014.20 1014.28 1014.31 1014.32 1014.36 1014.46 1014.62 1014.81 1015.01 1015.17 1015.27 1015.29 1015.24 1015.16 1015.07 1015.01 1014.98 1014.99 1015.01 1015.03
1011.39 1012.36 1013.23 1013.85 1014.13 1014.02 1013.56 1012.86 1012.06 1011.34 1010.85 1010.66 1010.79 1011.19 1011.75 1012.33 1012.82 1013.13 1013.24 1013.18 1013.02 1012.85 1012.76 1012.79 1012.97 1013.26 1013.60 1013.93 1014.20 1014.40 1014.51 1014.58 1014.64 1014.72 1014.85 1015.02 1015.20 1015.36 1015.48 1015.54 1015.53 1015.48 1015.42 1015.39 1015.39 1015.43 1015.51 1015.58 1015.63
1012.13 1013.05 1013.80 1014.26 1014.33 1014.02 1013.40 1012.60 1011.76 1011.07 1010.64 1010.55 1010.77 1011.24 1011.83 1012.43 1012.90 1013.19 1013.28 1013.22 1013.08 1012.95 1012.89 1012.97 1013.17 1013.47 1013.80 1014.13 1014.40 1014.60 1014.74 1014.85 1014.96 1015.09 1015.25 1015.43 1015.61 1015.75 1015.83 1015.85 1015.82 1015.76 1015.73 1015.73 1015.79 1015.90 1016.04 1016.17 1016.26
1012.77 1013.58 1014.16 1014.41 1014.29 1013.81 1013.08 1012.23 1011.43 1010.83 1010.52 1010.55 1010.88 1011.42 1012.05 1012.64 1013.10 1013.35 1013.43 1013.37 1013.24 1013.15 1013.13 1013.24 1013.46 1013.76 1014.08 1014.39 1014.64 1014.84 1014.99 1015.13 1015.29 1015.47 1015.67 1015.87 1016.05 1016.18 1016.23 1016.22 1016.17 1016.11 1016.08 1016.12 1016.22 1016.39 1016.57 1016.75 1016.87
1013.20 1013.86 1014.24 1014.29 1013.99 1013.39 1012.61 1011.79 1011.07 1010.61 1010.46 1010.64 1011.08 1011.69 1012.34 1012.92 1013.34 1013.57 1013.62 1013.57 1013.48 1013.43 1013.47 1013.61 1013.85 1014.15 1014.44 1014.71 1014.94 1015.11 1015.27 1015.43 1015.62 1015.85 1016.09 1016.33 1016.53 1016.65 1016.69 1016.66 1016.59 1016.52 1016.50 1016.54 1016.67 1016.85 1017.07 1017.27 1017.41
1013.42 1013.90 1014.09 1013.95 1013.51 1012.84 1012.06 1011.32 1010.74 1010.44 1010.46 1010.78 1011.32 1011.98 1012.63 1013.18 1013.56 1013.76 1013.82 1013.79 1013.75 1013.76 1013.85 1014.05 1014.31 1014.59 1014.87 1015.10 1015.28 1015.43 1015.57 1015.74 1015.96 1016.22 1016.50 1016.77 1017.00 1017.13 1017.18 1017.14 1017.05 1016.97 1016.93 1016.97 1017.10 1017.29 1017.51 1017.73 1017.88
1013.46 1013.76 1013.78 1013.50 1012.97 1012.28 1011.55 1010.92 1010.49 1010.36 1010.53 1010.97 1011.57 1012.25 1012.88 1013.39 1013.72 1013.90 1013.95 1013.96 1013.98 1014.06 1014.23 1014.47 1014.76 1015.05 1015.30 1015.49 1015.63 1015.74 1015.87 1016.03 1016.27 1016.55 1016.87 1017.17 1017.42 1017.58 1017.63 1017.60 1017.51 1017.42 1017.37 1017.40 1017.51 1017.69 1017.91 1018.12 1018.28
1013.39 1013.55 1013.44 1013.07 1012.51 1011.84 1011.20 1010.69 1010.41 1010.42 1010.71 1011.21 1011.84 1012.48 1013.06 1013.50 1013.79 1013.93 1013.99 1014.04 1014.12 1014.28 1014.52 1014.83 1015.15 1015.44 1015.68 1015.84 1015.95 1016.03 1016.13 1016.29 1016.52 1016.82 1017.16 1017.49 1017.76 1017.94 1018.02 1018.00 1017.92 1017.83 1017.79 1017.80 1017.90 1018.07 1018.28 1018.48 1018.65
1013.32 1013.38 1013.20 1012.79 1012.24 1011.64 1011.10 1010.71 1010.55 1010.66 1011.00 1011.51 1012.10 1012.68 1013.17 1013.52 1013.74 1013.85 1013.92 1014.00 1014.14 1014.37 1014.68 1015.04 1015.39 1015.70 1015.93 1016.08 1016.17 1016.23 1016.32 1016.47 1016.70 1017.01 1017.35 1017.69 1017.99 1018.19 1018.30 1018.31 1018.26 1018.20 1018.17 1018.19 1018.29 1018.45 1018.65 1018.85 1019.02
1013.33 1013.35 1013.14 1012.75 1012.25 1011.73 1011.29 1011.00 1010.92 1011.07 1011.41 1011.87 1012.37 1012.83 1013.20 1013.45 1013.59 1013.67 1013.73 1013.84 1014.03 1014.31 1014.67 1015.07 1015.45 1015.78 1016.02 1016.17 1016.26 1016.33 1016.42 1016.57 1016.79 1017.10 1017.44 1017.79 1018.09 1018.32 1018.46 1018.51 1018.52 1018.51 1018.51 1018.57 1018.69 1018.85 1019.06 1019.26 1019.43
1013.48 1013.49 1013.30 1012.96 1012.53 1012.10 1011.75 1011.53 1011.49 1011.63 1011.90 1012.26 1012.62 1012.94 1013.18 1013.32 1013.39 1013.42 1013.47 1013.59 1013.80 1014.12 1014.50 1014.92 1015.32 1015.67 1015.93 1016.10 1016.22 1016.31 1016.42 1016.58 1016.81 1017.10 1017.44 1017.78 1018.08 1018.33 1018.51 1018.63 1018.70 1018.76 1018.83 1018.95 1019.10 1019.30 1019.51 1019.72 1019.90
1013.76 1013.78 1013.63 1013.36 1013.02 1012.68 1012.40 1012.22 1012.18 1012.26 1012.43 1012.65 1012.86 1013.03 1013.14 1013.17 1013.17 1013.16 1013.20 1013.32 1013.53 1013.85 1014.23 1014.64 1015.05 1015.40 1015.68 1015.90 1016.06 1016.19 1016.34 1016.53 1016.77 1017.05 1017.37 1017.70 1018.00 1018.27 1018.49 1018.67 1018.82 1018.97 1019.13 1019.32 1019.53 1019.77 1020.01 1020.23 1020.41
1014.10 1014.15 1014.06 1013.86 1013.61 1013.35 1013.13 1012.97 1012.90 1012.90 1012.96 1013.03 1013.09 1013.12 1013.11 1013.06 1013.01 1012.98 1013.00 1013.11 1013.31 1013.59 1013.95 1014.33 1014.71 1015.06 1015.36 1015.61 1015.83 1016.02 1016.22 1016.44 1016.69 1016.97 1017.28 1017.58 1017.88 1018.16 1018.41 1018.66 1018.89 1019.14 1019.40 1019.67 1019.96 1020.25 1020.52 1020.75 1020.94
1014.46 1014.52 1014.48 1014.36 1014.19 1014.01 1013.84 1013.70 1013.59 1013.52 1013.46 1013.40 1013.34 1013.25 1013.16 1013.06 1012.98 1012.94 1012.95 1013.05 1013.21 1013.45 1013.75 1014.07 1014.41 1014.73 1015.04 1015.32 1015.58 1015.84 1016.09 1016.35 1016.61 1016.89 1017.17 1017.46 1017.74 1018.03 1018.32 1018.62 1018.94 1019.27 1019.63 1019.99 1020.35 1020.69 1020.99 1021.25 1021.44
1014.75 1014.83 1014.83 1014.79 1014.71 1014.61 1014.50 1014.38 1014.25 1014.11 1013.95 1013.80 1013.63 1013.47 1013.33 1013.21 1013.13 1013.10 1013.12 1013.20 1013.33 1013.50 1013.72 1013.96 1014.22 1014.50 1014.79 1015.08 1015.38 1015.67 1015.97 1016.26 1016.54 1016.82 1017.08 1017.35 1017.61 1017.90 1018.22 1018.57 1018.95 1019.38 1019.82 1020.26 1020.68 1021.07 1021.40 1021.67 1021.88
1014.96 1015.04 1015.09 1015.13 1015.15 1015.14 1015.10 1015.02 1014.89 1014.71 1014.49 1014.26 1014.04 1013.84 1013.68 1013.56 1013.51 1013.50 1013.53 1013.59 1013.68 1013.78 1013.90 1014.04 1014.21 1014.42 1014.66 1014.94 1015.24 1015.56 1015.88 1016.19 1016.48 1016.75 1016.99 1017.24 1017.49 1017.78 1018.11 1018.51 1018.95 1019.44 1019.94 1020.45 1020.92 1021.35 1021.71 1022.00 1022.22
1015.09 1015.19 1015.30 1015.43 1015.56 1015.66 1015.71 1015.69 1015.58 1015.39 1015.14 1014.87 1014.60 1014.38 1014.22 1014.12 1014.10 1014.12 1014.16 1014.21 1014.25 1014.28 1014.30 1014.33 1014.39 1014.51 1014.68 1014.91 1015.19 1015.50 1015.82 1016.13 1016.42 1016.67 1016.90 1017.13 1017.37 1017.66 1018.01 1018.43 1018.92 1019.46 1020.01 1020.56 1021.07 1021.52 1021.90 1022.21 1022.46
1015.20 1015.32 1015.51 1015.74 1016.00 1016.24 1016.40 1016.45 1016.39 1016.20 1015.94 1015.64 1015.35 1015.11 1014.95 1014.87 1014.87 1014.91 1014.96 1015.00 1014.99 1014.95 1014.87 1014.79 1014.74 1014.75 1014.83 1014.99 1015.22 1015.49 1015.79 1016.08 1016.34 1016.58 1016.79 1017.01 1017.25 1017.54 1017.90 1018.35 1018.87 1019.43 1020.01 1020.59 1021.11 1021.59 1021.99 1022.32 1022.60
1015.34 1015.50 1015.79 1016.15 1016.55 1016.93 1017.22 1017.37 1017.35 1017.19 1016.92 1016.59 1016.27 1016.00 1015.83 1015.75 1015.75 1015.80 1015.86 1015.87 1015.83 1015.72 1015.56 1015.38 1015.22 1015.11 1015.09 1015.16 1015.32 1015.53 1015.78 1016.03 1016.26 1016.47 1016.66 1016.86 1017.10 1017.40 1017.78 1018.24 1018.77 1019.36 1019.95 1020.54 1021.07 1021.55 1021.97 1022.33 1022.64
1015.56 1015.79 1016.18 1016.69 1017.24 1017.76 1018.17 1018.41 1018.46 1018.32 1018.03 1017.67 1017.31 1017.00 1016.79 1016.69 1016.68 1016.72 1016.76 1016.75 1016.68 1016.52 1016.29 1016.03 1015.77 1015.57 1015.45 1015.43 1015.49 1015.62 1015.79 1015.98 1016.17 1016.34 1016.51 1016.69 1016.93 1017.23 1017.62 1018.09 1018.64 1019.23 1019.83 1020.41 1020.94 1021.42 1021.85 1022.23 1022.58
1015.88 1016.19 1016.69 1017.33 1018.02 1018.68 1019.21 1019.54 1019.63 1019.51 1019.21 1018.81 1018.40 1018.04 1017.77 1017.63 1017.58 1017.59 1017.61 1017.58 1017.48 1017.28 1017.01 1016.69 1016.37 1016.09 1015.88 1015.77 1015.74 1015.78 1015.87 1015.98 1016.09 1016.21 1016.34 1016.50 1016.72 1017.02 1017.41 1017.89 1018.43 1019.02 1019.62 1020.19 1020.72 1021.19 1021.63 1022.02 1022.41
1016.30 1016.67 1017.27 1018.02 1018.83 1019.60 1020.22 1020.62 1020.77 1020.65 1020.34 1019.91 1019.45 1019.03 1018.71 1018.51 1018.41 1018.39 1018.38 1018.33 1018.21 1018.00 1017.71 1017.36 1017.00 1016.67 1016.39 1016.19 1016.07 1016.02 1016.01 1016.03 1016.06 1016.10 1016.18 1016.30 1016.49 1016.77 1017.14 1017.61 1018.15 1018.73 1019.31 1019.87 1020.39 1020.87 1021.30 1021.71 1022.11
1016.77 1017.19 1017.85 1018.68 1019.58 1020.43 1021.12 1021.57 1021.75 1021.66 1021.35 1020.90 1020.40 1019.94 1019.57 1019.32 1019.18 1019.12 1019.08 1019.02 1018.89 1018.68 1018.39 1018.04 1017.66 1017.30 1016.97 1016.71 1016.51 1016.35 1016.24 1016.15 1016.08 1016.03 1016.03 1016.08 1016.22 1016.46 1016.81 1017.25 1017.77 1018.33 1018.91 1019.46 1019.97 1020.44 1020.87 1021.28 1021.70
1017.25 1017.69 1018.38 1019.25 1020.19 1021.08 1021.81 1022.31 1022.53 1022.46 1022.16 1021.72 1021.23 1020.75 1020.36 1020.08 1019.91 1019.82 1019.76 1019.69 1019.56 1019.35 1019.07 1018.73 1018.36 1017.98 1017.63 1017.31 1017.03 1016.78 1016.56 1016.36 1016.17 1016.01 1015.91 1015.87 1015.93 1016.11 1016.41 1016.81 1017.30 1017.84 1018.40 1018.95 1019.45 1019.92 1020.36 1020.78 1021.20
1017.70 1018.13 1018.82 1019.69 1020.64 1021.54 1022.30 1022.82 1023.07 1023.05 1022.80 1022.40 1021.94 1021.49 1021.11 1020.83 1020.65 1020.54 1020.47 1020.38 1020.25 1020.05 1019.77 1019.45 1019.08 1018.69 1018.32 1017.95 1017.61 1017.28 1016.95 1016.63 1016.32 1016.04 1015.81 1015.67 1015.63 1015.73 1015.95 1016.31 1016.76 1017.28 1017.82 1018.36 1018.87 1019.35 1019.79 1020.21 1020.63
1018.13 1018.54 1019.20 1020.04 1020.96 1021.85 1022.61 1023.15 1023.44 1023.48 1023.30 1022.98 1022.59 1022.21 1021.87 1021.62 1021.44 1021.32 1021.23 1021.13 1020.98 1020.76 1020.49 1020.16 1019.79 1019.40 1019.00 1018.60 1018.20 1017.79 1017.37 1016.94 1016.50 1016.10 1015.75 1015.48 1015.34 1015.34 1015.49 1015.78 1016.19 1016.68 1017.21 1017.75 1018.27 1018.75 1019.21 1019.63 1020.06
1018.55 1018.94 1019.57 1020.37 1021.25 1022.11 1022.85 1023.41 1023.74 1023.84 1023.75 1023.53 1023.24 1022.94 1022.67 1022.46 1022.30 1022.18 1022.06 1021.92 1021.73 1021.48 1021.18 1020.83 1020.44 1020.03 1019.61 1019.17 1018.72 1018.25 1017.75 1017.22 1016.69 1016.17 1015.70 1015.33 1015.08 1014.98 1015.04 1015.27 1015.63 1016.09 1016.61 1017.15 1017.68 1018.18 1018.65 1019.09 1019.51
1019.03 1019.41 1020.01 1020.78 1021.62 1022.43 1023.15 1023.71 1024.07 1024.23 1024.23 1024.11 1023.93 1023.72 1023.53 1023.36 1023.22 1023.07 1022.91 1022.71 1022.46 1022.15 1021.79 1021.39 1020.96 1020.52 1020.07 1019.60 1019.11 1018.59 1018.04 1017.44 1016.83 1016.23 1015.67 1015.20 1014.86 1014.67 1014.66 1014.82 1015.12 1015.55 1016.04 1016.58 1017.12 1017.64 1018.12 1018.58 1019.01
Thickness
5792 5792 5789 5776 5752 5731 5727 5738 5747 5749 5752 5759 5763 5760 5751 5745 5740 5734 5753 5761 5761 5760 5761 5762 5762 5763 5765 5766 5766 5767 5767 5768 5768 5768 5768 5769 5769 5769 5769 5769 5769 5769 5769 5769 5769 5770 5769 5769 5769
5791 5790 5779 5761 5735 5717 5723 5739 5744 5751 5758 5762 5762 5757 5750 5746 5751 5750 5753 5758 5759 5759 5759 5760 5761 5761 5762 5763 5764 5765 5765 5765 5765 5765 5765 5765 5766 5766 5766 5766 5766 5766 5766 5766 5766 5766 5766 5766 5766
5790 5786 5765 5745 5729 5720 5727 5741 5747 5756 5763 5762 5754 5753 5748 5744 5750 5751 5755 5758 5758 5757 5757 5758 5759 5759 5760 5761 5762 5762 5763 5763 5762 5762 5762 5762 5763 5763 5763 5763 5763 5762 5762 5762 5763 5763 5763 5763 5762
5782 5769 5756 5736 5727 5735 5739 5745 5752 5754 5756 5758 5753 5744 5746 5753 5753 5754 5756 5756 5755 5755 5755 5756 5756 5757 5757 5758 5758 5759 5760 5760 5759 5759 5759 5759 5759 5759 5759 5759 5759 5759 5758 5758 5759 5759 5759 5759 5759
5775 5755 5736 5724 5729 5739 5746 5752 5755 5750 5748 5749 5748 5737 5738 5750 5756 5755 5754 5753 5752 5752 5753 5754 5754 5754 5754 5754 5755 5756 5756 5756 5756 5756 5756 5756 5756 5755 5755 5755 5755 5755 5755 5755 5755 5755 5755 5755 5755
5757 5744 5722 5716 5727 5739 5747 5753 5752 5746 5744 5746 5743 5735 5734 5747 5750 5750 5751 5750 5750 5750 5751 5751 5750 5750 5750 5751 5751 5752 5752 5752 5752 5752 5752 5752 5752 5751 5751 5751 5751 5751 5751 5751 5751 5751 5751 5752 5751
5749 5734 5722 5722 5724 5731 5743 5752 5747 5742 5740 5743 5745 5732 5732 5741 5747 5748 5748 5747 5747 5747 5747 5746 5746 5746 5746 5747 5747 5747 5748 5748 5748 5748 5748 5748 5748 5747 5747 5747 5747 5747 5747 5747 5747 5747 5747 5747 5747
5756 5735 5723 5721 5722 5728 5744 5751 5749 5746 5741 5748 5746 5730 5728 5738 5746 5746 5744 5743 5742 5742 5742 5742 5742 5742 5743 5743 5743 5743 5743 5743 5743 5743 5743 5743 5743 5742 5742 5743 5742 5742 5742 5742 5742 5742 5743 5742 5742
5758 5726 5714 5722 5725 5730 5743 5743 5745 5750 5744 5743 5743 5740 5740 5743 5743 5740 5737 5736 5736 5737 5737 5738 5738 5738 5739 5739 5739 5739 5739 5739 5739 5738 5739 5738 5738 5737 5737 5738 5738 5738 5738 5738 5737 5737 5738 5737 5737
5742 5717 5723 5735 5737 5735 5739 5740 5740 5737 5733 5731 5733 5737 5740 5739 5736 5733 5730 5729 5730 5731 5733 5734 5734 5734 5734 5735 5734 5734 5734 5734 5734 5734 5734 5733 5733 5733 5733 5733 5733 5733 5733 5732 5732 5732 5732 5732 5731
5739 5725 5732 5738 5743 5742 5737 5737 5740 5731 5723 5727 5727 5729 5732 5731 5730 5728 5727 5727 5728 5729 5730 5731 5731 5731 5731 5730 5730 5730 5730 5730 5730 5730 5729 5729 5728 5728 5728 5728 5728 5727 5727 5726 5726 5726 5726 5726 5725
5736 5735 5738 5738 5743 5739 5735 5734 5731 5729 5728 5735 5735 5733 5729 5726 5725 5725 5724 5725 5726 5726 5727 5728 5728 5727 5727 5727 5726 5726 5726 5725 5725 5725 5725 5724 5724 5723 5723 5723 5722 5722 5721 5721 5720 5720 5720 5720 5719
5731 5732 5738 5738 5738 5736 5734 5729 5726 5726 5732 5733 5731 5729 5725 5724 5723 5723 5725 5725 5724 5723 5724 5725 5725 5724 5724 5723 5722 5721 5721 5720 5720 5720 5719 5719 5718 5718 5717 5717 5716 5716 5716 5715 5715 5714 5714 5713 5713
5731 5731 5731 5732 5732 5732 5726 5723 5722 5721 5728 5727 5724 5721 5720 5720 5720 5720 5720 5720 5721 5721 5721 5722 5722 5721 5720 5719 5717 5716 5716 5716 5715 5715 5714 5714 5714 5713 5712 5712 5711 5711 5710 5710 5710 5709 5708 5707 5706
5734 5723 5721 5724 5726 5724 5722 5711 5714 5721 5723 5719 5717 5717 5717 5717 5718 5717 5718 5718 5718 5718 5719 5719 5719 5717 5716 5715 5714 5712 5712 5711 5710 5710 5710 5709 5709 5708 5707 5706 5705 5705 5705 5704 5704 5703 5702 5700 5699
5723 5711 5701 5714 5721 5722 5712 5695 5711 5719 5716 5711 5712 5713 5712 5713 5715 5716 5717 5716 5716 5716 5716 5716 5716 5713 5712 5710 5709 5708 5707 5706 5705 5704 5704 5704 5703 5703 5702 5700 5699 5699 5699 5699 5698 5696 5695 5693 5691
5704 5693 5695 5706 5718 5716 5706 5697 5708 5715 5713 5708 5708 5709 5709 5709 5711 5714 5715 5715 5714 5714 5713 5711 5711 5709 5708 5706 5704 5703 5701 5701 5700 5699 5698 5698 5698 5697 5696 5695 5694 5694 5693 5692 5692 5689 5688 5686 5684
5693 5693 5696 5699 5712 5710 5700 5696 5704 5710 5709 5705 5704 5704 5704 5705 5707 5711 5712 5713 5712 5711 5710 5708 5706 5705 5703 5701 5699 5697 5696 5694 5694 5693 5692 5692 5692 5691 5691 5689 5688 5688 5686 5685 5684 5683 5682 5680 5678
5707 5700 5696 5702 5715 5706 5696 5695 5699 5703 5703 5700 5699 5700 5701 5703 5707 5708 5709 5709 5708 5707 5705 5704 5702 5700 5698 5695 5692 5690 5688 5688 5688 5688 5687 5686 5686 5685 5685 5683 5682 5681 5679 5678 5678 5677 5675 5673 5672
5706 5697 5695 5702 5711 5704 5694 5692 5698 5701 5701 5702 5700 5699 5700 5700 5702 5703 5703 5704 5703 5702 5701 5699 5698 5696 5695 5692 5690 5687 5685 5683 5682 5682 5681 5681 5681 5680 5679 5677 5676 5675 5673 5672 5671 5671 5668 5666 5666
5701 5697 5696 5695 5701 5702 5692 5683 5689 5696 5701 5702 5701 5700 5700 5700 5698 5698 5698 5697 5697 5696 5696 5695 5693 5692 5691 5689 5686 5683 5680 5677 5675 5675 5675 5675 5675 5674 5673 5671 5670 5669 5668 5665 5664 5664 5662 5659 5658
5693 5707 5705 5698 5685 5675 5683 5663 5679 5687 5691 5694 5695 5695 5696 5698 5697 5695 5694 5693 5693 5693 5693 5691 5690 5688 5686 5684 5681 5677 5673 5669 5669 5669 5669 5669 5669 5668 5667 5666 5664 5663 5662 5660 5659 5658 5656 5655 5652
5702 5710 5703 5697 5684 5674 5675 5663 5668 5681 5682 5687 5691 5693 5694 5696 5695 5693 5692 5691 5690 5690 5688 5687 5685 5683 5681 5679 5677 5673 5669 5666 5665 5665 5663 5662 5662 5662 5661 5660 5659 5657 5656 5655 5654 5652 5651 5649 5646
5708 5700 5692 5680 5670 5659 5670 5661 5662 5672 5683 5688 5691 5691 5691 5692 5692 5691 5689 5688 5686 5685 5684 5682 5679 5677 5675 5674 5672 5668 5665 5663 5660 5658 5657 5656 5655 5655 5655 5654 5653 5652 5650 5649 5648 5647 5645 5643 5642
5695 5674 5655 5652 5645 5651 5670 5663 5663 5681 5690 5691 5690 5689 5689 5689 5687 5686 5684 5682 5680 5679 5677 5676 5673 5671 5669 5668 5666 5664 5661 5659 5656 5654 5652 5651 5649 5649 5649 5648 5647 5646 5645 5644 5642 5641 5639 5638 5637
5686 5673 5650 5641 5639 5648 5663 5658 5667 5685 5691 5692 5690 5688 5685 5683 5682 5681 5680 5678 5676 5674 5672 5670 5668 5665 5664 5662 5660 5659 5657 5655 5652 5651 5649 5647 5645 5644 5644 5643 5642 5640 5639 5638 5637 5635 5634 5633 5631
5681 5671 5671 5654 5651 5643 5648 5659 5670 5680 5681 5683 5682 5681 5679 5678 5678 5677 5675 5673 5671 5670 5668 5665 5663 5660 5659 5657 5655 5653 5652 5650 5648 5647 5645 5643 5642 5640 5639 5637 5636 5635 5634 5632 5631 5629 5627 5626 5625
5688 5676 5658 5649 5639 5632 5641 5647 5651 5664 5668 5672 5674 5674 5675 5675 5673 5672 5670 5669 5667 5665 5663 5661 5658 5656 5653 5652 5650 5649 5647 5646 5645 5642 5640 5639 5637 5635 5633 5631 5630 5628 5627 5626 5624 5622 5621 5620 5618
5676 5671 5658 5645 5642 5631 5628 5639 5663 5664 5665 5665 5667 5669 5668 5667 5667 5666 5665 5663 5662 5660 5658 5655 5653 5650 5648 5646 5644 5643 5641 5641 5639 5638 5636 5634 5632 5630 5628 5626 5624 5622 5621 5620 5618 5616 5615 5613 5612
5676 5668 5655 5641 5638 5634 5628 5636 5664 5665 5663 5662 5661 5662 5661 5661 5660 5660 5658 5656 5654 5652 5651 5649 5647 5645 5643 5641 5639 5637 5635 5634 5633 5631 5630 5628 5626 5625 5622 5620 5618 5616 5614 5613 5611 5610 5608 5607 5605